Voltar ao catálogo

CZ-2D DEB

AtivoPO
NORAD 44603·DEBRIS·🇨🇳 China

Lançado Nov 11, 2016 de Jiuquan Satellite Launch Center

Loading…

Próximas Passagens (próximas 24 horas)

TLE

AtualizadoSource: Space-Track

Época: Sep 14, 2026, 06:30 UTC

1 44603U 16068C   26257.27083607  .00000235  00000-0  17139-3 0  9997
2 44603  98.5739  53.8623 0213595 348.3646  11.2623 13.94414971986546

Acompanhe CZ-2D DEB em tempo real com AllMySat

Download on the App Store